sat.trackr.live / text

‹ back to catalog

STARLINK-5614

NORAD 55756 · 2023-028R

PAYLOAD ACTIVE UNKNOWN

§ Identity

Operator
Country
US
Launch date
2023-03-03
Launch site
AFWTR
Launch vehicle
Mass (kg)
RCS (m²)

Purposes: comms

External: N2YO · Heavens-Above · Gunter

§ Orbital elements

Epoch: 2026-09-20T22:00:03.000096Z

Period
95.73 min
Inclination
70.0004°
Eccentricity
0.0004878
Mean motion
15.04156447 rev/d
Perigee alt
550.7 km
Apogee alt
557.5 km
Semi-major
6,932.2 km
B*
5.6723e-3
RAAN
111.9978°
Arg perigee
239.3669°
Mean anomaly
311.4443°
Rev number
576

§ Raw data

STARLINK-56141 55756U 23028R   26263.91670139  .00079669  00000+0  56723-2 0  99992 55756  70.0004 111.9978 0004878 239.3669 311.4443 15.04156447  5767

JSON: /api/v1/satellites/55756 · /tle

For live sub-satellite position, see the globe view (requires WebGL).

§ Visibility from observer

Set your observer location to see the next 7 days of passes ≥ 10°. The values pass through the URL so the page stays shareable.

No JS? Fill the form by hand. The geolocation button needs JavaScript.